Temp
47 41 38 42 46 43 41 38 37 39 48 45 43 46 50 53 49 49 50 51 54 56 62 61 62 63 60 61 63 64 64 66 66 64 62 62 61 62 61 62 63 63 63 63
43 38 45 47 46 43 40 38 35 41 46 44 42 44 48 50 54 52 51 51 53 56 58 61 62 61 60 62 63 65 65 66 66 67 66 66 65 65 65 64 63 63 63 64
40 44 49 46 43 41 41 38 36 37 42 42 41 42 47 47 49 51 53 54 54 55 57 60 62 62 58 58 61 64 65 66 66 67 67 60 59 57 58 62 63 62 63 63
42 49 45 43 41 43 36 45 41 40 37 31 41 32 42 43 46 49 51 51 53 55 56 57 60 62 58 59 61 64 66 66 66 67 65 63 64 62 64 65 65 64 62 63
40 40 41 40 42 45 40 47 43 41 37 34 34 30 34 40 42 45 50 50 52 54 55 58 59 59 60 60 58 62 65 66 66 65 66 64 63 65 66 65 62 62 62 63
45 45 47 44 47 47 46 40 39 38 37 30 37 33 39 40 42 45 50 51 52 55 56 56 57 58 58 58 57 58 61 64 65 65 64 65 64 63 63 63 61 62 62 62
40 39 41 47 40 43 42 36 26 28 28 27 37 33 40 42 46 48 49 51 52 53 52 53 54 55 56 55 55 56 58 60 63 63 64 64 64 64 63 63 62 62 61 61
33 30 39 43 43 40 40 40 27 17 21 28 33 31 39 46 51 53 52 53 51 51 51 51 53 53 53 54 54 55 56 57 60 61 62 64 64 64 65 64 64 64 63 64
34 35 42 41 44 47 39 35 42 29 25 20 28 33 44 47 47 47 49 47 48 48 50 52 51 51 51 52 52 52 53 55 57 58 60 61 62 63 64 64 65 65 65 65
37 32 38 43 44 45 42 44 33 33 20 19 26 28 35 38 43 45 45 46 47 48 49 49 49 49 49 49 50 51 52 53 54 55 56 59 60 62 63 64 64 64 66 65
41 36 31 40 36 39 38 36 34 35 33 24 20 30 38 43 45 45 44 45 45 45 46 46 47 47 47 49 49 48 50 49 50 51 53 54 55 58 61 63 64 65 65 65
42 34 30 34 44 47 45 41 40 31 24 29 28 32 43 45 45 46 44 44 43 44 45 45 45 45 45 45 47 47 48 48 49 49 49 51 53 54 55 58 62 64 64 65
42 33 26 28 34 39 39 41 42 41 34 29 27 30 43 44 43 44 44 44 45 46 45 46 46 45 45 45 45 45 46 47 47 47 47 48 49 51 52 54 57 60 62 64
47 38 32 30 33 35 33 38 40 39 32 33 32 37 37 38 40 42 43 44 45 47 48 48 47 47 47 47 45 45 45 44 44 44 45 45 46 48 50 51 53 54 57 59
43 32 36 34 35 37 38 37 38 36 39 33 38 36 42 42 41 43 44 43 45 45 45 46 45 44 42 44 43 44 43 43 43 43 43 43 44 45 46 47 48 50 52 54
42 30 33 31 34 33 34 38 40 40 40 40 41 39 47 48 44 42 42 42 41 41 41 41 42 41 42 41 41 42 41 41 41 41 42 42 42 41 41 43 44 45 47 50
36 34 31 28 35 28 27 35 38 39 43 42 35 43 43 41 42 43 41 40 39 39 38 38 37 38 38 38 39 36 38 39 39 38 39 39 38 38 39 39 40 41 43 45
33 33 34 25 30 22 35 38 43 41 44 46 46 45 45 42 39 38 38 37 36 35 35 35 34 34 35 36 35 35 36 36 35 36 36 36 35 36 36 37 38 40 42 42
36 34 30 27 27 29 31 34 37 38 37 41 44 42 38 36 35 31 35 34 32 32 32 32 32 33 33 32 32 32 32 33 32 32 32 32 33 33 34 35 36 37 38 39
35 38 32 29 24 22 30 31 31 43 33 28 30 37 36 38 33 29 31 31 30 30 29 28 29 29 28 28 29 29 28 28 28 28 30 32 34 34 34 35 36 37 37 36
31 31 28 29 26 23 23 23 30 29 27 24 24 25 34 28 27 28 29 27 27 26 26 26 25 25 25 26 25 24 25 25 25 27 31 32 33 34 35 35 36 36 36 37
31 29 28 26 23 22 20 27 27 24 23 22 20 20 23 24 24 24 24 24 24 22 23 23 21 22 24 24 22 21 22 23 24 27 26 28 32 33 34 34 35 35 35 35
25 21 20 20 17 18 19 18 21 23 19 18 18 19 20 21 20 20 20 21 21 20 21 20 18 19 21 21 20 18 19 21 21 21 21 23 30 32 34 33 34 34 35 35
21 17 20 21 16 15 17 20 20 20 18 19 18 18 18 17 19 19 20 19 18 17 16 16 15 16 16 16 16 15 17 18 16 16 19 22 27 30 32 33 34 34 34 35
8 13 16 14 15 15 14 13 17 17 18 17 17 17 16 16 16 14 14 14 14 14 13 13 12 12 11 12 12 12 14 16 15 16 18 20 24 27 29 31 33 34 36 36
7 4 8 10 10 13 11 12 14 13 12 13 13 13 14 13 11 10 10 11 10 9 9 9 9 8 7 7 8 9 11 12 11 12 14 16 18 22 28 29 30 35 37 38
MSLP
1019.45 1019.56 1018.12 1017.67 1019.07 1019.85 1020.22 1020.54 1020.49 1019.89 1019.17 1018.85 1018.41 1017.91 1017.44 1016.98 1017.36 1017.32 1017.24 1017.27 1017.09 1016.81 1015.80 1015.71 1015.46 1015.12 1015.19 1015.31 1015.46 1015.48 1015.63 1015.50 1016.34 1016.75 1017.23 1017.64 1017.66 1017.89 1018.00 1017.74 1018.08 1018.49 1018.80 1019.21
1019.54 1017.60 1017.36 1018.81 1019.45 1020.03 1020.41 1020.36 1020.35 1020.10 1019.37 1019.31 1018.84 1017.75 1017.30 1017.00 1016.22 1016.49 1016.70 1016.72 1016.55 1016.28 1015.75 1015.20 1014.84 1014.57 1014.46 1014.25 1014.45 1014.64 1014.79 1014.96 1015.23 1015.59 1015.80 1016.30 1016.67 1016.88 1016.88 1017.12 1017.08 1017.18 1017.76 1018.01
1017.38 1016.03 1017.72 1018.39 1019.00 1019.59 1019.64 1019.72 1020.18 1020.12 1019.68 1019.51 1019.53 1017.91 1016.94 1016.14 1015.81 1015.83 1015.76 1015.60 1015.81 1015.69 1015.21 1014.71 1014.15 1013.80 1013.82 1014.06 1013.87 1013.81 1013.85 1014.01 1014.31 1014.52 1015.17 1015.75 1016.21 1016.39 1016.64 1016.39 1016.35 1016.33 1016.47 1016.83
1017.84 1016.89 1017.13 1017.56 1018.23 1018.78 1019.04 1019.66 1020.13 1020.44 1020.55 1020.37 1019.90 1017.78 1016.39 1015.78 1015.60 1015.33 1015.09 1015.18 1015.31 1015.06 1014.65 1014.36 1013.96 1013.61 1013.42 1013.41 1013.38 1013.16 1013.05 1013.22 1013.55 1014.04 1014.59 1014.89 1014.92 1015.26 1015.08 1015.10 1015.63 1015.98 1016.10 1015.83
1015.45 1016.12 1017.03 1017.59 1016.80 1018.48 1018.35 1018.98 1019.97 1020.71 1020.91 1021.06 1020.38 1019.98 1015.19 1015.44 1015.19 1015.22 1015.00 1015.05 1014.82 1014.61 1014.19 1013.78 1013.47 1013.30 1013.04 1012.86 1012.73 1012.60 1012.34 1012.46 1012.64 1013.03 1013.28 1013.72 1014.07 1014.08 1014.04 1014.49 1014.74 1014.93 1015.32 1015.40
1015.21 1015.64 1016.21 1015.88 1016.99 1017.79 1018.41 1019.32 1020.24 1020.92 1021.41 1021.26 1018.13 1019.69 1014.55 1015.15 1014.74 1014.80 1014.63 1014.46 1014.26 1013.99 1013.54 1013.53 1013.20 1013.04 1012.78 1012.24 1012.18 1012.11 1011.90 1011.77 1011.92 1012.29 1012.56 1012.81 1012.99 1013.22 1013.44 1013.66 1013.94 1014.07 1014.29 1014.66
1015.39 1015.80 1015.55 1015.63 1016.68 1017.42 1017.99 1019.08 1020.60 1021.06 1020.53 1019.08 1018.78 1019.40 1015.06 1013.77 1013.94 1014.26 1014.39 1014.00 1013.62 1013.47 1013.59 1013.53 1013.51 1013.09 1012.81 1012.66 1012.31 1012.10 1012.00 1011.70 1011.57 1011.78 1012.17 1012.37 1012.35 1012.50 1012.49 1012.66 1012.92 1013.26 1013.53 1013.57
1014.19 1015.05 1014.69 1014.48 1014.78 1015.87 1017.13 1018.12 1018.56 1019.41 1019.91 1019.27 1018.92 1017.52 1013.87 1013.51 1013.37 1013.53 1013.40 1013.34 1013.30 1013.35 1013.23 1013.42 1013.46 1013.45 1013.20 1013.08 1012.71 1012.35 1012.21 1011.82 1011.74 1011.73 1011.71 1011.72 1011.96 1012.06 1012.08 1012.35 1012.50 1012.43 1012.38 1012.37
1013.46 1013.45 1013.23 1013.95 1014.56 1015.03 1016.16 1016.83 1017.10 1019.09 1020.39 1019.88 1018.24 1016.43 1014.44 1013.17 1013.14 1013.02 1013.08 1013.24 1013.07 1013.16 1013.28 1013.51 1013.82 1013.81 1013.60 1013.25 1013.12 1013.09 1012.73 1012.32 1012.18 1012.05 1011.84 1011.81 1011.86 1011.89 1011.64 1011.61 1011.56 1011.51 1011.51 1011.57
1012.89 1013.41 1013.04 1013.80 1014.21 1014.29 1014.68 1015.96 1017.47 1018.10 1018.81 1019.13 1017.57 1016.42 1014.27 1013.21 1012.89 1012.90 1013.15 1013.23 1013.44 1013.68 1013.87 1014.04 1014.10 1014.03 1013.96 1013.75 1013.69 1013.49 1013.31 1013.07 1012.79 1012.44 1012.12 1011.89 1011.67 1011.45 1011.21 1011.08 1010.81 1010.73 1010.61 1010.60
1012.70 1013.19 1013.45 1013.53 1012.72 1013.01 1014.48 1014.99 1015.88 1016.43 1017.23 1017.54 1017.22 1015.16 1013.51 1013.06 1012.88 1013.16 1013.64 1013.84 1014.12 1014.29 1014.48 1014.51 1014.50 1014.34 1014.21 1013.88 1013.89 1013.91 1013.74 1013.56 1013.21 1012.89 1012.53 1012.20 1011.66 1011.26 1010.97 1010.64 1010.21 1009.99 1009.88 1009.84
1011.89 1013.09 1013.07 1012.31 1012.27 1012.55 1012.61 1012.79 1013.63 1014.96 1016.12 1016.33 1015.77 1013.79 1012.55 1012.60 1012.65 1012.88 1013.74 1014.15 1014.38 1014.55 1014.77 1014.87 1014.92 1014.89 1014.80 1014.78 1014.48 1014.47 1014.20 1014.05 1013.89 1013.37 1012.90 1012.48 1011.95 1011.40 1010.91 1010.29 1009.83 1009.55 1009.01 1008.84
1011.38 1011.83 1012.25 1012.82 1013.32 1012.43 1012.19 1012.51 1013.08 1013.74 1014.31 1014.75 1015.04 1013.39 1012.57 1012.62 1013.10 1013.24 1013.57 1014.16 1014.45 1014.77 1015.25 1015.52 1015.20 1015.38 1015.60 1015.40 1015.09 1014.81 1014.80 1014.54 1014.15 1013.70 1012.99 1012.83 1012.26 1011.69 1011.32 1010.45 1009.75 1009.18 1008.62 1008.15
1010.26 1010.66 1010.79 1010.76 1011.19 1010.93 1012.12 1011.87 1012.19 1012.72 1013.34 1013.06 1013.13 1012.76 1012.88 1013.26 1013.43 1013.60 1013.91 1014.33 1014.59 1014.98 1015.37 1015.73 1015.73 1015.63 1016.01 1015.69 1015.62 1014.55 1015.33 1015.31 1014.92 1014.22 1013.72 1012.82 1012.70 1011.99 1011.21 1010.75 1009.89 1009.20 1008.68 1008.01
1009.73 1009.84 1010.67 1010.96 1011.35 1010.32 1010.12 1010.66 1011.09 1011.58 1011.38 1011.78 1011.36 1011.90 1011.87 1012.55 1013.25 1013.52 1013.83 1014.51 1014.61 1015.16 1015.82 1015.90 1016.04 1016.44 1016.60 1016.51 1016.15 1015.53 1015.85 1015.48 1015.04 1014.51 1013.80 1012.76 1012.82 1012.30 1011.36 1010.62 1009.95 1009.33 1008.73 1007.97
1009.48 1009.11 1010.13 1010.43 1010.73 1010.32 1010.07 1010.04 1010.35 1010.46 1010.35 1010.60 1010.74 1011.22 1010.51 1011.83 1012.99 1013.69 1013.99 1014.60 1015.41 1016.05 1016.50 1016.91 1017.18 1017.00 1017.00 1016.85 1016.53 1016.28 1016.03 1015.62 1015.26 1014.73 1014.08 1013.12 1012.39 1012.71 1011.50 1010.66 1010.22 1009.41 1008.65 1007.91
1009.36 1009.57 1010.23 1009.59 1009.95 1010.95 1010.57 1009.55 1009.08 1009.32 1008.97 1009.64 1010.29 1009.29 1010.62 1011.53 1012.58 1013.49 1014.49 1015.44 1016.41 1017.17 1017.79 1018.15 1018.26 1018.09 1017.97 1017.68 1017.33 1017.02 1016.54 1016.12 1015.69 1015.29 1014.55 1013.80 1013.31 1012.53 1012.07 1010.78 1010.42 1009.69 1008.90 1007.78
1008.37 1009.16 1009.52 1009.63 1009.87 1010.05 1008.85 1008.57 1008.70 1008.95 1008.59 1009.68 1010.10 1009.79 1011.01 1012.15 1013.66 1014.51 1015.46 1016.33 1017.53 1018.26 1018.78 1019.09 1019.16 1018.87 1018.45 1018.17 1017.96 1017.62 1017.09 1016.43 1015.99 1015.42 1014.84 1014.23 1013.68 1012.87 1012.21 1011.11 1010.71 1010.08 1009.31 1008.17
1008.60 1008.96 1008.57 1009.01 1009.39 1010.14 1009.77 1009.08 1008.82 1008.99 1009.38 1010.45 1010.69 1011.37 1012.21 1013.33 1014.63 1016.63 1017.18 1017.85 1018.76 1019.30 1019.71 1019.98 1019.76 1019.43 1019.24 1018.94 1018.57 1018.02 1017.48 1016.97 1016.46 1015.93 1015.39 1014.82 1014.17 1013.24 1012.25 1011.71 1010.95 1010.66 1009.37 1008.20
1007.35 1008.13 1008.60 1009.39 1010.29 1010.53 1010.28 1010.55 1010.18 1009.94 1011.89 1013.12 1012.97 1012.59 1013.42 1014.42 1016.22 1017.77 1018.49 1019.14 1019.77 1020.25 1020.59 1020.58 1020.35 1020.19 1020.00 1019.71 1019.36 1018.79 1018.24 1017.67 1017.34 1016.98 1016.10 1015.28 1014.56 1013.77 1012.79 1012.00 1011.16 1010.47 1009.41 1007.90
1007.34 1007.34 1008.08 1009.33 1010.26 1011.84 1012.71 1012.76 1012.03 1013.36 1015.20 1015.98 1016.03 1015.56 1015.09 1016.14 1017.94 1018.88 1019.60 1020.28 1020.80 1021.07 1021.20 1021.33 1021.13 1020.86 1020.67 1020.34 1019.99 1019.44 1018.98 1018.61 1018.33 1017.66 1016.38 1015.41 1014.51 1013.78 1012.83 1011.88 1010.97 1010.04 1008.78 1007.79
1007.44 1008.01 1009.61 1011.66 1013.31 1014.86 1015.38 1014.36 1015.39 1016.73 1017.69 1018.10 1018.52 1018.83 1018.13 1018.98 1020.06 1020.44 1020.94 1021.29 1021.56 1021.94 1021.92 1021.85 1021.74 1021.53 1021.22 1020.94 1020.60 1020.08 1019.61 1019.34 1018.69 1017.56 1016.57 1015.62 1014.43 1013.48 1012.49 1011.50 1010.41 1009.44 1008.61 1007.68
1010.20 1011.47 1011.66 1013.98 1015.90 1017.89 1018.34 1018.79 1019.89 1019.76 1020.03 1020.46 1021.01 1021.25 1021.01 1021.10 1021.65 1022.03 1022.10 1022.40 1022.71 1022.77 1022.54 1022.54 1022.33 1021.99 1021.84 1021.73 1021.41 1020.80 1020.33 1019.65 1018.77 1017.87 1016.81 1015.69 1014.30 1013.11 1012.14 1011.23 1010.26 1009.35 1008.56 1007.61
1013.43 1014.48 1014.64 1016.21 1019.37 1020.26 1020.41 1021.35 1021.99 1022.47 1022.62 1022.62 1022.73 1022.87 1022.95 1022.90 1023.01 1023.38 1023.50 1023.70 1023.67 1023.63 1023.42 1023.41 1023.12 1022.80 1022.50 1022.36 1022.11 1021.75 1020.90 1020.09 1019.20 1018.11 1016.97 1015.78 1014.42 1012.95 1012.07 1011.18 1010.26 1009.19 1008.25 1007.37
1019.27 1018.51 1018.99 1020.70 1021.82 1022.11 1023.09 1023.85 1023.83 1024.45 1024.64 1024.52 1024.46 1024.37 1024.61 1024.46 1024.29 1024.51 1024.54 1024.61 1024.57 1024.78 1024.83 1024.46 1024.24 1023.94 1023.55 1023.02 1022.44 1022.04 1021.30 1020.53 1019.61 1018.61 1017.40 1016.09 1014.89 1013.43 1011.94 1011.00 1009.97 1008.96 1008.03 1007.36
1023.23 1023.66 1023.18 1023.23 1023.73 1024.00 1024.64 1025.67 1025.49 1026.00 1026.37 1026.27 1025.72 1025.52 1025.70 1025.82 1025.60 1025.93 1026.24 1026.33 1026.56 1026.38 1025.70 1025.05 1024.89 1024.81 1023.96 1023.41 1022.84 1022.19 1021.62 1021.01 1020.18 1018.94 1017.75 1016.65 1015.22 1013.71 1012.16 1010.75 1008.94 1008.57 1007.44 1006.29
Wind_Speed
6 7 23 26 17 5 7 5 7 3 5 3 8 14 16 13 6 10 9 8 10 11 12 7 9 9 9 9 11 14 14 16 10 9 9 8 11 8 7 9 11 11 10 11
7 23 13 9 10 7 5 8 5 4 4 2 7 17 13 10 15 9 8 9 11 8 8 10 10 8 9 11 14 14 15 14 13 11 10 9 8 9 9 8 10 12 13 13
20 9 17 13 13 16 18 14 6 2 0 3 6 16 15 8 8 6 8 9 7 11 11 10 10 10 8 9 11 13 16 16 15 17 8 3 0 1 3 9 10 12 15 14
15 18 14 16 17 17 21 15 6 6 4 6 6 15 8 4 9 8 9 7 8 10 9 9 10 13 8 10 9 11 13 14 14 14 11 14 13 13 12 12 8 10 13 15
15 9 12 16 18 15 9 9 14 6 6 5 7 4 4 3 7 6 9 8 10 10 11 13 11 8 9 8 8 11 13 13 14 14 17 13 14 12 10 8 10 10 11 14
23 5 15 11 11 17 7 6 4 4 5 10 21 9 20 9 6 5 7 10 9 12 11 9 8 7 9 8 7 7 10 13 12 13 16 18 18 16 11 11 9 9 9 9
20 7 2 7 8 6 6 8 4 7 11 16 10 8 23 3 3 5 10 12 11 9 8 8 9 8 7 8 8 6 7 8 9 12 14 16 17 17 17 14 10 11 9 9
16 15 16 6 9 9 20 14 6 10 6 8 5 12 16 1 9 13 9 11 7 9 7 7 8 5 5 7 8 8 6 6 5 6 11 12 14 10 11 12 10 10 10 11
15 17 8 5 6 18 12 20 10 5 2 3 6 8 9 9 8 8 8 7 8 5 2 8 8 5 5 7 8 7 8 8 7 6 5 7 8 11 12 14 13 10 12 10
3 7 5 18 8 12 13 10 10 9 9 10 5 5 11 2 7 3 4 5 7 7 7 6 6 6 4 5 5 7 7 6 6 7 6 5 6 8 11 13 15 15 14 14
2 2 3 15 17 19 8 10 6 3 7 7 3 9 8 10 8 6 6 7 6 7 6 6 6 7 8 9 9 7 9 8 7 7 7 7 7 7 9 11 13 15 15 14
19 3 5 17 17 22 23 23 23 9 11 7 2 11 2 7 7 10 8 7 5 5 4 5 6 7 8 8 9 9 10 10 9 7 7 9 9 8 7 8 11 13 14 13
18 9 6 3 2 5 18 19 17 15 3 11 8 9 3 8 6 5 9 7 6 5 6 4 5 5 6 6 6 8 10 12 12 11 10 10 10 10 11 9 9 10 12 14
22 20 12 16 11 8 16 21 20 21 13 16 14 17 4 5 8 5 5 6 8 6 5 4 0 4 4 3 5 6 6 6 7 8 9 9 12 12 11 12 12 11 11 11
20 21 23 15 7 10 19 25 25 22 25 19 23 18 14 14 11 9 8 6 6 6 3 6 6 5 6 6 6 6 6 8 9 10 9 10 11 12 12 12 11 12 11 11
20 10 17 19 12 7 11 19 24 26 26 23 19 14 12 10 7 7 9 8 7 6 5 5 5 5 7 8 9 9 10 11 11 11 12 11 12 14 13 13 15 13 12 12
17 13 9 22 21 2 10 22 23 23 30 26 19 29 7 9 8 10 8 8 8 7 5 4 5 6 7 8 9 11 11 10 10 11 11 12 13 14 15 13 14 14 14 12
12 20 11 5 12 21 13 2 20 25 22 22 19 15 11 6 9 10 7 9 8 6 6 6 6 6 8 8 9 9 10 10 11 10 13 13 14 15 15 14 14 16 14 13
9 14 9 10 12 3 5 5 14 19 15 5 20 7 7 15 9 7 7 9 8 7 6 6 7 8 8 10 11 11 10 10 10 13 14 15 15 15 15 15 15 16 14 15
16 23 15 9 12 14 5 3 7 4 13 8 6 5 12 13 10 5 6 8 7 7 6 7 7 7 8 10 10 11 11 10 12 14 15 15 15 14 14 14 16 12 13 13
14 13 16 13 6 5 5 14 10 10 4 8 9 9 4 5 5 10 7 8 7 8 9 8 8 8 9 9 11 10 10 11 13 13 14 15 13 16 13 13 13 13 13 13
7 9 6 5 4 6 14 3 1 6 11 11 13 13 14 12 9 9 8 8 9 9 9 11 10 9 8 10 11 11 11 13 13 14 14 14 15 13 12 14 12 13 13 14
3 3 4 5 5 6 11 14 11 13 10 11 11 11 9 10 9 9 8 9 9 11 11 12 11 12 9 11 12 14 14 15 15 14 14 13 15 13 14 13 13 12 11 10
4 10 5 5 7 10 13 12 13 12 12 11 11 11 11 9 10 9 9 9 10 11 12 12 11 12 12 11 13 11 14 15 14 15 15 13 14 15 14 11 9 9 9 10
6 9 6 8 10 12 12 12 12 11 11 12 11 11 12 11 11 12 11 12 12 12 12 11 11 12 13 13 13 11 13 14 14 14 13 13 11 14 14 13 12 11 10 10
9 8 5 4 7 5 9 10 13 11 12 12 11 12 13 13 12 13 11 11 11 12 12 11 12 12 13 13 13 13 11 14 14 14 11 11 11 12 11 12 16 16 21 22
Wind_Direction
190 180 209 204 202 199 160 193 196 221 245 192 236 257 258 272 252 254 247 247 250 259 263 251 247 239 220 217 209 214 208 216 200 201 206 217 223 220 224 211 212 209 207 215
180 223 205 147 192 209 197 211 214 270 265 171 294 273 264 258 261 231 222 238 236 243 260 273 251 236 219 218 215 219 219 216 207 206 212 214 207 225 226 218 216 200 209 214
203 215 184 180 189 202 222 214 177 170 326 277 23 288 267 243 258 231 227 224 231 231 237 245 259 249 230 229 222 219 219 218 213 214 206 169 124 202 209 226 222 216 209 208
223 231 188 186 204 192 222 221 143 172 118 233 145 270 215 226 240 240 229 213 230 240 249 249 258 271 240 238 240 233 225 216 214 208 203 206 212 219 226 230 228 228 217 214
212 155 178 202 208 180 222 157 200 182 220 34 242 269 273 221 240 235 249 225 234 247 244 250 252 257 275 249 224 228 231 224 219 204 205 207 217 227 233 224 227 214 222 223
216 173 182 197 175 187 130 81 85 146 170 232 235 191 271 222 201 215 248 253 246 243 257 266 276 275 272 278 257 237 228 228 219 210 209 213 218 222 225 223 220 224 217 219
211 199 223 144 152 155 168 124 161 209 208 231 183 174 243 265 331 214 257 249 245 257 267 274 280 293 304 318 314 307 258 245 227 213 217 221 225 229 230 230 222 224 227 220
186 202 201 182 199 175 195 191 181 204 196 235 148 223 235 153 227 242 253 264 261 255 257 268 282 326 5 5 6 4 342 297 277 235 228 230 235 236 239 240 240 238 233 230
198 214 189 186 169 167 187 208 197 98 123 73 211 284 300 257 246 248 266 259 272 297 80 50 40 28 17 27 21 10 4 359 349 308 274 243 238 239 243 244 243 240 240 234
223 206 191 182 144 213 177 146 189 203 205 226 245 250 232 246 246 254 268 129 66 67 48 32 23 15 17 33 13 14 13 6 348 345 336 303 273 249 246 248 249 245 245 237
151 244 209 156 205 190 164 193 207 181 192 200 229 248 202 222 216 176 167 95 93 91 70 44 25 17 11 20 23 16 15 2 357 352 333 324 306 282 279 266 256 251 250 242
201 184 196 209 203 204 202 205 198 196 222 223 202 245 220 231 198 154 137 123 116 91 75 63 45 30 27 20 17 10 9 6 352 339 333 324 307 298 287 275 272 269 253 243
186 198 179 161 29 171 213 212 212 218 61 190 207 245 188 133 134 146 147 153 140 111 71 37 45 44 13 15 9 16 3 358 350 345 351 333 326 325 311 296 292 286 272 260
188 216 228 224 226 145 195 211 208 208 219 220 220 245 142 154 150 166 164 174 147 149 168 202 16 23 360 355 341 36 354 343 329 334 331 350 338 331 321 312 305 297 289 279
204 216 213 227 253 189 194 206 212 209 218 214 228 222 221 190 195 195 197 178 138 139 106 45 41 12 353 357 349 1 342 343 338 331 332 356 337 332 328 325 318 312 300 288
202 243 209 232 235 210 216 212 216 216 222 226 239 237 223 200 197 188 178 166 141 115 69 41 16 14 10 3 359 355 347 345 338 336 335 342 352 330 336 334 326 316 307 296
200 210 193 226 220 193 237 216 214 217 223 213 217 229 123 195 195 173 155 139 135 113 85 42 12 4 355 358 358 350 340 334 337 335 336 341 338 335 329 333 326 319 310 305
196 205 205 246 162 223 244 205 219 219 225 213 230 244 171 142 84 74 77 112 94 77 43 26 356 347 358 359 353 337 337 341 339 340 340 339 337 333 329 332 331 321 313 307
256 219 218 219 223 331 326 249 192 184 225 223 221 202 128 125 95 51 59 70 74 63 37 18 352 356 358 359 346 341 342 343 343 345 337 334 333 329 329 326 325 318 313 312
193 219 198 177 224 221 180 72 356 143 218 12 309 178 150 151 172 150 82 61 56 47 29 13 4 358 0 354 349 342 343 342 350 338 328 327 326 321 319 317 320 310 306 306
197 188 204 204 186 284 40 312 296 170 171 44 28 16 127 112 44 94 71 58 42 28 15 16 8 6 357 353 350 345 342 350 331 321 322 318 317 319 312 309 309 309 310 307
184 177 172 142 155 215 359 319 16 54 67 56 42 24 66 79 64 62 47 38 28 17 10 12 4 358 358 3 350 344 342 334 326 321 323 318 319 319 315 315 313 313 311 309
131 3 103 17 100 73 40 69 38 47 71 56 51 34 40 60 46 33 25 19 13 11 8 4 357 347 352 357 352 339 334 329 326 326 321 316 313 316 322 317 313 310 309 308
59 16 88 157 81 82 58 62 55 47 54 50 45 39 35 43 35 23 16 6 3 2 2 355 349 345 337 342 336 328 324 326 328 323 321 320 316 320 319 315 308 305 308 308
349 326 26 86 121 115 78 44 37 39 37 34 42 39 33 23 27 12 2 359 357 350 346 346 341 334 325 327 327 326 325 328 325 320 318 318 319 314 315 310 308 304 296 286
357 10 1 53 28 354 80 55 33 34 23 21 22 25 25 21 15 3 353 350 341 331 333 338 335 322 320 322 320 321 326 329 322 317 318 317 312 312 307 314 312 301 299 302